Location: Brantley
(31.5822°N, 86.2569°W)
Time: 02:06:24
(UTC+00:00)

Vanguard 3 - Pass Details

Date: 22 February 2026
Orbit: 507 x 3205 km, 33.4° (Epoch: 13 March)

Event Time Altitude Azimuth Distance (km) Brightness Sun altitude
Rises 23:02:58 0° 274° (W) 5,553 13.0 6.4°
Reaches altitude 10° 23:07:21 10° 276° (W) 4,097 12.3 5.5°
Maximum altitude 23:17:17 79° 3° (N) 1,128 8.0 3.4°
Drops below altitude 10° 23:22:49 10° 90° (E) 2,359 8.9 2.3°
Sets 23:24:45 0° 92° (E) 3,091 9.5 1.9°
